Regional Weather Roundup
Issued by NWS

Home | Current Version | Previous Version | Graphics & Text | Print | Product List | Glossary Off
Versions: 1 2 3 4 5 6 7 8 9 10 11 12 13 14 15 16 17 18 19 20 21 22 23 24 25 26 27 28 29 30 31 32 33 34 35 36 37 38 39 40 41 42 43 44 45 46 47 48 49 50

000
ASUS43 KTOP 231108
RWRKS

WEATHER ROUNDUP FOR KANSAS
NATIONAL WEATHER SERVICE GOODLAND KS
500 AM CST SUN NOV 23 2014

NOTE:  "FAIR" INDICATES FEW OR NO CLOUDS BELOW 12,000 FEET WITH NO
SIGNIFICANT WEATHER AND/OR OBSTRUCTIONS TO VISIBILITY.

KSZ001>006-013>018-027>032-041>047-231200-
NORTHWEST KANSAS

CITY           SKY/WX    TMP DP  RH WIND       PRES   REMARKS
GOODLAND       PTCLDY    47  31  53 N25G38    29.53R
HAYS           CLOUDY    50  43  76 W5        29.45R
HILL CITY      CLOUDY    49  46  90 NW6       29.46R
RUSSELL        CLOUDY    51  47  86 CALM      29.42S
$$

KSZ061>065-074>080-084>089-231200-
SOUTHWEST KANSAS

CITY           SKY/WX    TMP DP  RH WIND       PRES   REMARKS
DODGE CITY     PTCLDY    45  43  93 SW10      29.38F
ELKHART          N/A    N/A N/A N/A MISG        N/A
GARDEN CITY    MOCLDY    37  36  96 N15       29.40R WCI  28
GREAT BEND     CLOUDY    52  45  76 S7        29.42S
LIBERAL        MOCLDY    37  32  81 CALM      29.41R
PRATT          CLOUDY    50  46  87 S12       29.42S
$$

KSZ066>073-081>083-090>101-231200-
SOUTHEAST KANSAS

CITY           SKY/WX    TMP DP  RH WIND       PRES   REMARKS
CHANUTE        LGT RAIN  56  54  93 S15       29.56F
COFFEYVILLE    CLOUDY    57  54  89 S9        29.56F
HUTCHINSON     CLOUDY    53  50  89 SE10      29.46R
MEDICINE LODGE   N/A     52  50  93 SE9G18    29.42F
NEWTON         CLOUDY    54  46  76 S16G22    29.48F
PARSONS        CLOUDY    57  55  93 S9        29.57F
WICHITA INTL   CLOUDY    55  51  86 S15       29.47S
WICHITA JABRA  CLOUDY    54  52  93 S14G21    29.47F
WICHITA MCCONL CLOUDY    54  54 100 SE14      29.48S
WINFIELD       CLOUDY    56  53  90 SE14      29.50F
$$

KSZ007>012-019>026-033>040-048>060-102>105-231200-
NORTHEAST KANSAS

CITY           SKY/WX    TMP DP  RH WIND       PRES   REMARKS
CONCORDIA      CLOUDY    52  51  97 S7        29.45F
EMPORIA        CLOUDY    54  53  97 S15G23    29.50F
LAWRENCE       CLOUDY    53  50  89 SE10      29.54F
MANHATTAN      CLOUDY    55  53  93 S6        29.47F
MARYSVILLE     CLOUDY    54  52  94 S6        29.47F
OLATHE IND     CLOUDY    52  51  97 SE9       29.56F
OLATHE EXE     LGT RAIN  53  51  93 S7        29.55F
SALINA         CLOUDY    54  50  86 SE8       29.46R
TOPEKA BILLARD CLOUDY    55  53  93 SE13      29.52F FOG
TOPEKA FORBES  CLOUDY    54  52  93 SE13      29.51F FOG
$$



USA.gov is the U.S. government's official web portal to all federal, state and local government web resources and services.